sat.trackr.live / text

‹ back to catalog

YAOGAN-33 04

NORAD 57958 · 2023-149A

PAYLOAD ACTIVE UNKNOWN

§ Identity

Operator
Country
PRC
Launch date
2023-09-26
Launch site
JSC
Launch vehicle
Mass (kg)
RCS (m²)

External: N2YO · Heavens-Above · Gunter

§ Orbital elements

Epoch: 2026-09-21T23:27:38.864160Z

Period
98.71 min
Inclination
98.2058°
Eccentricity
0.0002067
Mean motion
14.58804244 rev/d
Perigee alt
695.6 km
Apogee alt
698.5 km
Semi-major
7,075.2 km
B*
6.4371e-5
RAAN
213.1319°
Arg perigee
76.1149°
Mean anomaly
284.0280°
Rev number
15,911

§ Raw data

YAOGAN-33 041 57958U 23149A   26264.97753315  .00000255  00000+0  64371-4 0  99992 57958  98.2058 213.1319 0002067  76.1149 284.0280 14.58804244159112

JSON: /api/v1/satellites/57958 · /tle

For live sub-satellite position, see the globe view (requires WebGL).

§ Visibility from observer

Set your observer location to see the next 7 days of passes ≥ 10°. The values pass through the URL so the page stays shareable.

No JS? Fill the form by hand. The geolocation button needs JavaScript.